Regional Weather Roundup
Issued by NWS

Home | Current Version | Previous Version | Graphics & Text | Print | Product List | Glossary On
Versions: 1 2 3 4 5 6 7 8 9 10 11 12 13 14 15 16 17 18 19 20 21 22 23 24 25 26 27 28 29 30 31 32 33 34 35 36 37 38 39 40 41 42 43 44 45 46 47 48 49 50
000
ASUS45 KSLC 260610
RWRUT

UTAH REGIONAL WEATHER ROUNDUP
NATIONAL WEATHER SERVICE SALT LAKE CITY UT
1200 AM MDT THU MAR 26 2015

UTZ001>011-023>025-260700-

NORTHERN UTAH

CITY           SKY/WX    TMP DP  RH WIND       PRES   REMARKS
BRIGHAM CITY   MOCLDY    37  28  71 SE3       30.41R
HILL AFB         N/A     39  19  44 E9        30.40R WCI  33
LOGAN          MOCLDY    40  28  62 CALM      30.40R
OGDEN            N/A     38  22  52 S6        30.39S WCI  33
PROVO AIRPORT    N/A     43  23  45 E6        30.41S
SALT LAKE CITY MOCLDY    42  24  49 SE6       30.40R
VERNAL           N/A     37  13  37 NW3       30.32R
WENDOVER       MOCLDY    46  19  34 SW5       30.40S
HEBER CITY       N/A     30  19  64 CALM      30.40R
WEST JORDAN    MOCLDY    39  21  48 CALM      30.41S

$$

UTZ012>022-026-027-260700-

SOUTHERN/CENTRAL UTAH

CITY           SKY/WX    TMP DP  RH WIND       PRES   REMARKS
BLANDING         N/A     37  11  34 N7        30.37R WCI  32
BRYCE CANYON     N/A     27  13  55 NW6       30.39R WCI  20
CEDAR CITY       N/A     40   6  24 N10       30.35R WCI  33
DELTA            N/A     38  14  37 NE6       30.39S WCI  34
HANKSVILLE       N/A     45  10  24 NW6       30.32S
MILFORD          N/A     39   4  23 NW12      30.37S WCI  32
MOAB/CYNLANDS    N/A     39   9  29 SW5       30.28R
PRICE            N/A     42  12  29 N18G30    30.32S
ST GEORGE        N/A     61  10  13 NE16G23   30.29R
KANAB            N/A     48   7  18 NW17G23   30.34R

$$

REGIONAL REPORTS     COLORADO/ARIZONA

CITY           SKY/WX    TMP DP  RH WIND       PRES   REMARKS
CRAIG, CO        N/A     28  22  78 E3        30.34R
GRAND JUNCTION   N/A     39  15  37 VRB3      30.30R
RIFLE            N/A     31  20  63 S3        30.35R
MONTROSE         N/A     34  17  50 S9        30.35R WCI  27
CORTEZ           N/A     38  11  32 N9        30.29R WCI  31
PAGE, AZ         N/A     51  13  21 CALM      30.27R
GRAND CANYON     N/A     37  21  52 CALM      30.32R
KINGMAN          N/A     50  24  36 CALM      30.21R
FLAGSTAFF        N/A     34  20  56 SW3       30.30S

$$

REGIONAL REPORTS    NEVADA/IDAHO/WYOMING

CITY           SKY/WX    TMP DP  RH WIND       PRES   REMARKS
LAS VEGAS, NV    N/A     67  20  16 CALM      30.17R
ELY              N/A     39  18  42 NW6       30.40R WCI  35
ELKO             N/A     41  28  60 E3        30.38S
POCATELLO, ID    N/A     42  27  55 SW14      30.38S
BURLEY           N/A     43  30  60 SW13      30.38R
EVANSTON, WY     N/A     28  17  63 W9        30.39S WCI  19
ROCK SPRINGS     N/A     29  18  63 W10       30.34S WCI  20

$$



USA.gov is the U.S. government's official web portal to all federal, state and local government web resources and services.